EHI
2 2 2 1 0 0 0 0 0 0 0 0 0 0 0 0 0 0 0 0 0 0 0 0 0 0 0 0 0 0 0 0 0 0 0 0 0 0 0 0 0 0 0
3 3 3 1 0 0 0 0 0 0 0 0 0 0 0 0 0 0 0 0 0 0 0 0 0 0 0 0 0 0 0 0 0 0 0 0 0 0 0 0 0 0 0
4 4 3 2 1 0 0 0 0 0 0 0 0 0 0 0 0 0 0 0 0 0 0 0 0 0 0 0 0 0 0 0 0 0 0 0 0 0 0 0 0 0 0
4 4 4 3 1 0 0 0 0 0 0 0 0 0 0 0 0 0 0 0 0 0 0 0 0 0 0 0 0 0 0 0 0 0 0 0 0 0 0 0 0 0 0
2 3 4 3 1 0 0 0 0 0 0 0 0 0 0 0 0 0 0 0 0 0 0 0 0 0 0 0 0 0 0 0 0 0 0 0 0 0 0 0 0 0 0
1 2 3 3 1 0 0 0 0 0 0 0 0 0 0 0 0 0 0 0 0 0 0 0 0 0 0 0 0 0 0 0 0 0 0 0 0 0 0 0 0 0 0
1 1 2 3 1 0 0 0 1 0 0 0 0 0 0 0 0 0 0 0 0 0 0 0 0 0 0 0 0 0 0 0 0 0 0 0 0 0 0 0 0 0 0
2 2 2 2 1 1 0 0 0 0 0 0 0 0 0 0 0 0 0 0 0 0 0 0 0 0 0 0 0 0 0 0 0 0 0 0 0 0 0 0 0 0 0
3 3 2 1 1 1 1 0 0 0 0 0 0 0 0 0 0 0 0 0 0 0 0 0 0 0 0 0 0 0 0 0 0 0 0 0 0 0 0 0 0 0 0
4 3 2 1 1 1 1 0 0 0 0 0 0 0 0 0 0 0 0 0 0 0 0 0 0 0 0 0 0 0 0 0 0 0 0 0 0 0 0 0 0 0 0
5 4 3 1 1 1 1 0 0 0 0 0 0 0 0 0 0 0 0 0 0 0 0 0 0 0 0 0 0 0 0 0 0 0 0 0 0 0 0 0 0 0 0
7 5 3 3 2 1 1 1 0 0 0 0 0 0 0 0 0 0 0 0 0 0 0 0 0 0 0 0 0 0 0 0 0 0 0 0 0 0 0 0 0 0 0
6 6 5 4 3 1 1 1 0 0 0 0 0 0 0 0 0 0 0 0 0 0 0 0 0 0 0 0 0 0 0 0 0 0 0 0 0 0 0 0 0 0 0
6 7 6 4 2 1 1 1 0 0 0 0 0 0 0 0 0 0 0 0 0 0 0 0 0 0 0 0 0 0 0 0 0 0 0 0 0 0 0 0 0 0 0
6 6 5 4 3 2 2 1 0 0 0 0 0 0 0 0 0 0 0 0 0 0 0 0 0 0 0 0 0 0 0 0 0 0 0 0 0 0 0 0 0 0 0
5 5 4 3 3 3 1 0 0 0 0 0 0 0 0 0 0 0 0 0 0 0 0 0 0 0 0 0 0 0 0 0 0 0 0 0 0 0 0 0 0 0 0
5 5 4 3 2 2 1 0 0 0 0 0 0 0 0 0 0 0 0 0 0 0 0 0 0 0 0 0 0 0 0 0 0 0 0 0 0 0 0 0 0 0 0
4 4 2 1 1 1 0 0 0 0 0 0 0 0 0 1 2 2 1 1 0 0 0 0 0 0 0 0 0 0 0 0 0 0 0 0 0 0 0 0 0 0 0
3 2 1 0 0 0 0 0 1 0 0 0 0 1 1 2 3 3 2 1 0 0 0 0 0 0 0 0 0 0 0 1 0 0 0 0 0 0 0 0 0 0 0
4 2 1 1 1 1 1 1 1 1 1 1 1 1 2 2 2 2 1 0 0 0 0 0 0 0 0 0 0 0 0 0 0 0 0 0 0 0 0 0 0 0 0
5 4 3 3 2 2 2 2 2 2 2 1 1 1 1 1 1 1 0 0 0 0 0 0 0 0 0 0 0 0 0 0 0 0 0 0 1 1 1 1 0 0 0
9 9 7 5 3 2 1 1 1 1 1 1 1 0 0 0 0 0 0 0 0 0 0 0 0 0 0 0 0 0 0 0 0 1 2 1 1 2 2 1 0 0 0
13 13 12 9 5 2 0 0 0 0 0 1 1 1 1 0 0 0 0 0 0 0 0 0 0 0 0 1 0 0 0 0 0 1 2 1 1 1 1 1 0 0 0
14 14 14 13 8 3 0 0 0 0 0 1 1 1 1 0 0 0 0 0 0 0 0 0 0 0 0 0 0 0 0 0 0 1 2 1 0 0 0 0 0 0 0
18 16 16 15 13 8 2 0 0 0 1 1 2 2 1 0 0 0 0 0 0 1 0 0 0 0 0 0 0 0 0 0 0 1 2 2 1 0 0 0 0 0 0
23 20 18 17 16 12 4 0 0 1 2 3 4 4 2 0 0 0 0 0 0 1 0 0 0 0 0 0 0 0 0 0 0 0 2 3 1 0 0 0 0 0 0
Wind_Speed
5 5 4 3 3 3 4 3 3 3 2 2 1 3 2 2 2 3 6 8 6 6 7 7 7 6 6 6 6 6 6 6 6 6 6 6 6 6 6 6 6 6 5
5 5 5 4 4 3 2 2 3 3 2 2 2 3 2 2 3 2 4 8 8 6 6 7 7 7 7 6 6 7 7 7 7 7 7 6 6 7 7 7 6 6 6
6 5 4 4 4 4 4 3 3 3 3 3 3 3 2 1 2 2 2 3 7 8 7 6 6 6 6 6 6 7 7 7 8 8 7 7 7 7 7 7 7 7 7
7 5 4 4 4 4 4 3 3 3 2 2 2 2 2 2 3 3 3 3 2 5 8 7 6 6 6 6 7 7 8 8 8 9 9 9 9 8 8 8 8 8 8
7 6 4 4 5 4 3 3 3 3 3 2 3 3 2 2 3 3 2 3 3 3 4 8 7 5 5 6 6 7 7 8 8 9 9 9 9 9 9 9 9 9 9
8 6 5 5 5 4 4 3 3 2 2 2 2 2 2 2 2 2 3 4 4 4 4 4 6 7 6 4 4 5 6 7 7 8 9 9 9 9 9 9 9 9 9
8 6 5 6 5 4 4 5 4 5 4 3 3 4 3 3 2 2 3 3 4 3 3 3 2 2 5 7 4 3 4 5 5 5 6 7 8 8 8 9 9 10 10
8 8 6 6 5 4 5 5 4 3 3 3 3 3 4 5 5 3 3 4 3 4 4 4 2 2 2 3 6 4 3 3 4 4 4 5 5 6 6 8 8 9 10
8 7 7 6 5 6 5 6 5 6 4 4 3 3 3 2 5 5 3 3 3 3 3 3 3 3 3 2 4 6 4 2 3 3 3 4 4 4 4 5 7 8 8
8 8 7 7 6 5 5 7 6 5 5 4 4 3 3 3 3 4 6 5 4 4 3 3 3 4 4 3 2 4 4 2 2 2 3 3 4 4 4 4 5 6 7
8 8 8 7 7 5 5 4 4 5 5 5 4 4 4 3 5 4 3 4 5 4 4 4 3 3 3 3 3 5 5 3 2 1 1 2 4 4 4 5 6 6 7
7 9 8 7 7 5 6 6 5 6 4 3 4 4 4 4 5 5 4 5 4 4 3 3 4 3 4 4 3 7 5 3 2 2 1 1 2 3 4 5 6 7 7
7 9 8 7 6 6 6 5 5 4 5 4 5 4 4 4 3 4 4 4 4 3 4 5 4 4 4 3 4 6 6 4 3 3 3 3 3 4 5 6 6 7 7
8 9 9 8 7 7 7 6 5 5 4 4 5 4 3 3 3 4 4 4 5 5 5 5 3 4 3 4 3 5 6 7 5 4 5 5 5 5 6 6 7 7 8
7 9 9 8 8 8 7 7 4 5 5 5 5 6 5 3 3 3 4 5 5 5 4 5 5 4 4 3 3 5 5 6 6 6 7 7 7 7 7 7 8 8 8
8 9 9 9 9 8 8 7 6 6 5 5 4 3 4 4 3 3 4 4 5 6 5 2 3 4 3 4 5 6 7 6 9 9 8 8 9 9 9 9 9 9 9
10 10 10 10 9 9 9 8 7 7 7 6 6 6 6 4 4 4 4 4 5 5 6 5 3 3 4 7 4 6 7 7 7 12 10 9 9 9 10 10 10 10 10
11 11 10 10 10 10 9 9 9 8 8 8 7 7 7 6 6 6 4 5 5 4 6 6 4 5 6 7 6 7 8 7 7 8 11 10 11 11 11 11 11 11 11
11 11 11 11 11 10 10 10 9 9 8 8 8 8 8 7 8 7 6 6 6 6 6 6 7 5 6 6 7 8 9 7 9 7 12 14 13 13 13 13 13 12 12
11 11 11 11 10 10 11 10 10 9 9 8 8 8 8 9 9 9 8 8 7 7 7 7 7 6 6 7 6 7 8 7 8 8 7 8 11 14 15 15 15 14 14
12 11 11 11 10 10 10 11 10 10 10 9 9 10 10 9 7 7 7 8 8 8 8 8 8 8 7 6 6 7 7 7 7 8 8 8 8 10 11 15 17 16 15
11 11 11 11 11 10 9 10 10 10 10 10 10 10 10 10 10 11 10 10 9 9 9 8 8 8 7 8 7 7 8 8 8 6 7 8 8 9 9 10 9 13 15
11 11 11 11 11 9 9 12 12 10 10 9 10 9 9 9 11 11 13 14 14 14 13 12 12 11 9 8 8 10 9 9 9 7 7 10 9 10 10 9 9 11 13
10 10 10 10 10 9 11 12 12 12 11 10 10 10 10 9 9 9 10 11 12 13 14 13 13 13 12 9 8 10 10 10 11 10 9 11 10 10 10 9 9 13 15
9 9 9 10 10 9 11 12 11 9 9 11 11 10 10 10 7 7 10 11 11 11 11 12 12 12 11 9 7 8 10 10 11 10 8 9 10 11 10 10 10 13 16
8 8 8 8 9 8 9 11 12 8 9 9 9 9 9 10 7 8 11 11 12 11 10 9 11 12 13 13 12 12 11 11 11 10 8 7 10 9 10 10 9 8 10
Wind_Direction
161 148 144 147 148 139 158 165 143 132 143 147 132 116 105 92 117 140 124 149 166 173 176 176 178 183 183 186 186 187 186 185 181 177 179 179 179 180 178 176 173 174 173
159 157 159 163 152 155 139 161 142 159 163 139 148 125 146 130 132 170 143 151 166 175 180 181 185 192 195 197 198 200 201 199 193 194 195 194 196 197 194 193 190 189 187
162 168 164 171 153 146 150 173 155 172 170 163 153 148 152 145 137 157 164 157 160 170 179 184 191 199 205 206 209 211 211 206 202 203 205 206 206 208 206 205 204 201 198
169 177 173 165 155 170 174 164 191 183 165 177 160 165 159 156 167 180 180 178 179 163 168 175 189 201 208 207 213 216 215 215 213 209 211 211 211 212 212 212 213 211 209
175 183 175 146 172 182 185 193 165 198 173 177 174 171 183 170 170 190 185 181 174 189 164 156 176 194 206 212 214 216 214 215 218 216 215 216 218 215 215 216 216 216 217
179 184 171 165 189 186 187 179 155 177 184 191 197 149 186 167 195 170 206 186 178 189 189 172 180 178 185 203 209 213 211 212 215 221 222 223 223 221 221 221 220 219 220
179 188 182 169 198 193 190 183 180 170 185 183 191 178 174 182 179 188 208 206 178 180 175 188 218 200 170 168 176 192 202 206 209 216 219 225 225 222 222 224 226 227 225
184 188 190 189 193 186 187 189 200 204 179 194 222 203 189 177 186 183 188 197 193 187 187 181 164 199 266 170 134 157 179 201 206 209 211 214 219 225 228 229 228 231 231
190 192 189 199 189 198 186 194 196 210 200 192 235 257 244 208 158 162 186 187 195 207 207 172 186 179 209 209 161 151 156 180 197 204 206 207 212 221 233 238 237 234 233
188 188 192 194 198 202 182 201 193 208 217 207 191 250 298 342 268 171 179 178 185 209 222 225 195 187 205 205 133 110 140 149 168 200 215 215 214 220 234 250 255 249 242
189 189 190 189 193 199 189 205 185 220 219 231 214 205 209 216 253 260 199 179 192 198 202 214 221 219 205 216 211 135 139 152 158 178 212 226 229 232 242 253 259 260 256
187 190 190 188 193 190 184 196 200 205 230 234 246 232 225 223 224 234 227 216 211 191 197 221 230 224 221 217 189 124 153 172 187 209 228 242 245 245 254 261 264 265 265
188 187 189 188 190 187 187 190 195 201 202 207 227 235 240 248 251 250 253 240 232 204 193 215 216 222 224 219 163 153 179 183 202 223 235 246 251 255 261 266 269 271 272
190 179 185 186 188 186 186 185 194 190 193 206 218 234 242 237 237 242 253 253 239 228 211 217 201 212 226 227 137 209 194 180 208 230 242 249 252 254 258 263 266 268 269
181 178 187 188 187 187 188 190 201 195 192 207 204 202 230 218 229 236 245 257 263 256 231 194 216 196 218 228 173 236 242 177 205 231 241 246 250 254 258 260 260 260 261
181 180 189 191 190 190 191 200 197 194 201 208 222 218 226 223 214 226 233 241 259 273 276 232 210 213 220 253 196 240 252 192 213 226 235 243 248 252 255 257 258 259 259
183 186 190 194 194 195 195 200 211 193 206 206 210 210 217 236 229 224 225 233 241 252 261 259 231 212 221 257 242 244 249 248 231 201 216 235 245 250 253 255 257 258 258
189 191 193 197 200 200 200 204 211 204 208 210 212 214 216 212 216 240 234 234 237 248 257 262 251 231 223 234 243 252 255 249 262 194 202 225 237 244 249 251 253 254 254
192 194 195 200 203 203 204 209 212 211 213 216 215 215 218 217 217 222 228 236 232 226 237 253 251 244 237 233 239 244 250 255 266 239 205 218 228 237 244 247 249 249 249
195 196 199 202 205 206 208 210 212 215 219 221 221 222 224 223 222 224 225 234 242 244 235 245 251 244 238 232 238 252 252 235 247 264 257 239 225 225 235 239 241 243 244
201 200 202 205 207 209 212 210 211 214 218 222 223 224 227 231 236 236 242 233 231 238 241 241 246 248 244 240 244 250 259 264 252 252 260 257 243 238 229 229 232 236 238
204 202 205 207 208 213 194 198 218 221 219 224 227 227 228 221 225 228 247 259 261 249 250 254 253 253 255 254 256 262 266 266 268 254 256 264 264 263 258 255 224 211 224
203 205 208 210 212 210 181 191 209 230 229 229 230 231 235 227 216 227 223 229 242 249 253 259 264 265 262 256 259 260 258 266 274 283 274 272 268 265 263 260 219 215 224
204 205 208 211 213 208 185 193 199 223 237 236 235 234 238 242 232 233 238 234 235 233 230 234 250 260 264 270 259 260 268 264 261 256 255 265 268 269 271 268 232 220 227
204 207 209 212 216 213 187 190 194 218 228 235 237 237 238 240 231 221 240 247 249 248 235 230 239 253 268 272 267 264 260 261 264 262 246 257 270 275 273 269 256 221 223
205 209 212 215 218 222 192 188 196 223 230 233 232 234 230 239 236 209 234 246 250 252 258 243 233 241 249 247 233 241 255 260 266 269 263 258 269 275 276 270 268 259 240